{"data":{"norad_id":62802,"intl_designator":"2025-016T","name":"QIANFAN-72","alt_names":[],"object_type":"PAYLOAD","status":"ACTIVE","operator":null,"country":"PRC","launch_date":"2025-01-23","launch_site_code":"TAISC","launch_vehicle":null,"mission":null,"orbit_class":"UNKNOWN","rcs_meters":null,"size_class":null,"mass_kg":null,"dimensions":null,"purposes":[],"wikipedia_slug":null,"has_3d_model":false,"image_url":null,"decayed_at":null,"tle_current":{"epoch":"2026-09-22T21:44:31.527744Z","epoch_age_seconds":110214,"freshness":"FRESH","line1":"1 62802U 25016T   26265.90592046  .00000064  00000+0  79968-4 0  9990","line2":"2 62802  88.9654  73.5391 0017251 253.1356 106.7903 13.51028859 85594","mean_motion":13.51028859,"eccentricity":0.0017251,"inclination_deg":88.9654,"raan_deg":73.5391,"arg_perigee_deg":253.1356,"mean_anomaly_deg":106.7903,"bstar":7.9968e-5,"rev_number":8559,"period_min":106.58543601103,"perigee_km":1055.6293885413,"apogee_km":1081.3216911262,"semimajor_km":7446.6125398338,"source":"CELESTRAK","updated_at":"2026-09-23T09:00:21.637907Z"}}}